Location: *
(47.7167°N, 1.7333°W)
Time: 17:57:46
(UTC+00:00)

Cosmos 1606 Rocket - Pass Details

Date: 09 April 2020
Orbit: 602 x 633 km, 82.5° (Epoch: 04 June)

Event Time Altitude Azimuth Distance (km) Brightness Sun altitude
Rises 19:25:51 0° 182° (S) 2,895 6.8 -6.8°
Reaches altitude 10° 19:28:04 10° 180° (S) 1,998 6.0 -7.2°
Maximum altitude 19:32:29 73° 97° (E) 665 3.6 -7.8°
Drops below altitude 10° 19:36:58 10° 13° (NNE) 2,026 6.3 -8.5°
Sets 19:39:13 0° 12° (NNE) 2,941 7.2 -8.9°
